• In France
  • List of Countries
  • For 7 days
  • Water Temperature
  • Satellite Maps
  • Weather Map
  • Weather Widgets
  • user-avatar
    Login

    Hourly Weather Paryshka

    Today, 24 May, Thursday

    Time Temperature Precipitation Wind Pressure Humidity
    00:00 +18°C° 0.7 mm 1 mps 755 mmHg 89%
    01:00 +18°C° 0.4 mm 1 mps 755 mmHg 90%
    02:00 +18°C° 0.4 mm 1 mps 754 mmHg 91%
    03:00 +18°C° 0 mm 1 mps 754 mmHg 91%
    04:00 +18°C° 0.5 mm 1 mps 754 mmHg 92%
    05:00 +18°C° 0.5 mm 1 mps 753 mmHg 92%
    06:00 +17°C° 0.5 mm 2 mps 753 mmHg 93%
    07:00 +18°C° 0.9 mm 2 mps 753 mmHg 92%
    08:00 +18°C° 0.9 mm 2 mps 753 mmHg 91%
    09:00 +19°C° 0 mm 2 mps 753 mmHg 90%
    10:00 +19°C° 1 mm 2 mps 753 mmHg 88%
    11:00 +20°C° 1 mm 3 mps 753 mmHg 87%
    12:00 +20°C° 1 mm 3 mps 753 mmHg 85%
    13:00 +20°C° 0.4 mm 4 mps 753 mmHg 84%
    14:00 +20°C° 0.4 mm 4 mps 752 mmHg 83%
    15:00 +21°C° 0.4 mm 5 mps 752 mmHg 82%
    16:00 +20°C° 0.2 mm 5 mps 752 mmHg 82%
    17:00 +20°C° 0.2 mm 5 mps 752 mmHg 82%
    18:00 +20°C° 0.2 mm 4 mps 751 mmHg 83%
    19:00 +19°C° 0.2 mm 4 mps 751 mmHg 85%
    20:00 +18°C° 0.2 mm 4 mps 751 mmHg 87%
    21:00 +17°C° 0.2 mm 4 mps 752 mmHg 90%
    22:00 +17°C° 0 mm 4 mps 751 mmHg 89%
    23:00 +15°C° 0 mm 5 mps 751 mmHg 87%

    Tomorrow, 25 May, Friday

    Time Temperature Precipitation Wind Pressure Humidity
    00:00 +15°C° 0 mm 5 mps 751 mmHg 86%
    01:00 +14°C° 0 mm 5 mps 752 mmHg 87%
    02:00 +14°C° 0 mm 5 mps 752 mmHg 87%
    03:00 +13°C° 0 mm 5 mps 752 mmHg 88%
    04:00 +13°C° 0 mm 6 mps 752 mmHg 88%
    05:00 +13°C° 0 mm 6 mps 753 mmHg 89%
    06:00 +12°C° 0 mm 7 mps 753 mmHg 90%
    07:00 +14°C° 0 mm 7 mps 754 mmHg 84%
    08:00 +15°C° 0 mm 7 mps 754 mmHg 79%
    09:00 +16°C° 0 mm 8 mps 754 mmHg 73%
    10:00 +16°C° 0 mm 8 mps 755 mmHg 68%
    11:00 +17°C° 0 mm 8 mps 755 mmHg 62%
    12:00 +17°C° 0 mm 8 mps 756 mmHg 57%
    13:00 +17°C° 0 mm 8 mps 756 mmHg 55%
    14:00 +17°C° 0 mm 8 mps 756 mmHg 54%
    15:00 +17°C° 0 mm 8 mps 756 mmHg 52%
    16:00 +17°C° 0 mm 7 mps 757 mmHg 55%
    17:00 +16°C° 0 mm 6 mps 757 mmHg 58%
    18:00 +15°C° 0 mm 5 mps 757 mmHg 61%
    19:00 +14°C° 0 mm 5 mps 758 mmHg 62%
    20:00 +12°C° 0 mm 4 mps 759 mmHg 64%
    21:00 +11°C° 0 mm 4 mps 759 mmHg 65%
    22:00 +10°C° 0 mm 4 mps 760 mmHg 65%
    23:00 +10°C° 0 mm 4 mps 760 mmHg 65%

    Day after tomorrow, 26 May, Saturday

    Time Temperature Precipitation Wind Pressure Humidity
    00:00 +8°C° 0 mm 4 mps 761 mmHg 66%
    01:00 +8°C° 0 mm 3 mps 761 mmHg 67%
    02:00 +8°C° 0 mm 3 mps 762 mmHg 68%
    03:00 +7°C° 0 mm 3 mps 762 mmHg 69%
    04:00 +7°C° 0 mm 3 mps 762 mmHg 69%
    05:00 +8°C° 0 mm 3 mps 763 mmHg 69%
    06:00 +8°C° 0 mm 3 mps 763 mmHg 69%
    07:00 +10°C° 0 mm 4 mps 764 mmHg 63%
    08:00 +11°C° 0 mm 4 mps 764 mmHg 57%
    09:00 +13°C° 0 mm 5 mps 764 mmHg 51%
    10:00 +14°C° 0 mm 5 mps 765 mmHg 50%
    11:00 +14°C° 0 mm 4 mps 765 mmHg 49%
    12:00 +15°C° 0 mm 4 mps 765 mmHg 48%
    13:00 +17°C° 0 mm 4 mps 765 mmHg 47%
    14:00 +17°C° 0 mm 4 mps 764 mmHg 46%
    15:00 +18°C° 0 mm 3 mps 764 mmHg 46%
    16:00 +18°C° 0 mm 3 mps 764 mmHg 49%
    17:00 +18°C° 0 mm 2 mps 764 mmHg 52%
    18:00 +17°C° 0 mm 2 mps 764 mmHg 55%
    19:00 +16°C° 0 mm 2 mps 764 mmHg 58%
    20:00 +14°C° 0 mm 1 mps 764 mmHg 61%
    21:00 +12°C° 0 mm 1 mps 764 mmHg 64%
    22:00 +11°C° 0 mm 1 mps 764 mmHg 65%
    23:00 +11°C° 0 mm 1 mps 764 mmHg 66%

    27 May, Sunday

    Time Temperature Precipitation Wind Pressure Humidity
    00:00 +9°C° 0 mm 2 mps 765 mmHg 67%
    01:00 +9°C° 0 mm 2 mps 765 mmHg 69%
    02:00 +8°C° 0 mm 2 mps 765 mmHg 71%
    03:00 +8°C° 0 mm 2 mps 765 mmHg 73%
    04:00 +9°C° 0 mm 2 mps 765 mmHg 74%
    05:00 +9°C° 0 mm 2 mps 765 mmHg 74%
    06:00 +10°C° 0 mm 2 mps 765 mmHg 75%
    07:00 +13°C° 0 mm 2 mps 764 mmHg 70%
    08:00 +13°C° 0 mm 3 mps 764 mmHg 65%
    09:00 +16°C° 0 mm 3 mps 764 mmHg 59%
    10:00 +17°C° 0 mm 3 mps 764 mmHg 57%
    11:00 +18°C° 0 mm 3 mps 763 mmHg 54%
    12:00 +19°C° 0 mm 3 mps 763 mmHg 51%
    13:00 +19°C° 0 mm 3 mps 762 mmHg 51%
    14:00 +19°C° 0 mm 4 mps 762 mmHg 51%
    15:00 +20°C° 0 mm 4 mps 761 mmHg 51%
    16:00 +19°C° 0 mm 4 mps 761 mmHg 55%
    17:00 +19°C° 0 mm 3 mps 760 mmHg 59%
    18:00 +19°C° 0 mm 3 mps 760 mmHg 63%
    19:00 +17°C° 0 mm 3 mps 759 mmHg 68%
    20:00 +14°C° 0 mm 3 mps 759 mmHg 72%
    21:00 +13°C° 0 mm 3 mps 759 mmHg 77%
    22:00 +12°C° 0 mm 3 mps 759 mmHg 77%
    23:00 +12°C° 0 mm 3 mps 759 mmHg 78%

    28 May, Monday

    Time Temperature Precipitation Wind Pressure Humidity
    00:00 +11°C° 0 mm 3 mps 758 mmHg 78%
    01:00 +11°C° 0 mm 3 mps 758 mmHg 79%
    02:00 +11°C° 0 mm 3 mps 758 mmHg 79%
    03:00 +11°C° 0 mm 3 mps 758 mmHg 80%
    04:00 +11°C° 0 mm 3 mps 758 mmHg 80%
    05:00 +12°C° 0 mm 3 mps 758 mmHg 81%
    06:00 +12°C° 0 mm 3 mps 758 mmHg 82%
    07:00 +14°C° 0 mm 4 mps 758 mmHg 79%
    08:00 +15°C° 0 mm 4 mps 759 mmHg 76%
    09:00 +18°C° 0 mm 4 mps 759 mmHg 73%
    10:00 +19°C° 0 mm 5 mps 759 mmHg 66%
    11:00 +19°C° 0 mm 5 mps 759 mmHg 59%
    12:00 +20°C° 0 mm 6 mps 760 mmHg 53%
    13:00 +20°C° 0 mm 6 mps 760 mmHg 50%
    14:00 +20°C° 0 mm 6 mps 760 mmHg 47%
    15:00 +20°C° 0 mm 6 mps 760 mmHg 45%
    16:00 +19°C° 0 mm 5 mps 760 mmHg 49%
    17:00 +18°C° 0 mm 4 mps 761 mmHg 53%
    18:00 +18°C° 0 mm 4 mps 761 mmHg 57%
    19:00 +16°C° 0 mm 3 mps 761 mmHg 60%
    20:00 +13°C° 0 mm 3 mps 762 mmHg 62%
    21:00 +11°C° 0 mm 3 mps 762 mmHg 65%
    22:00 +10°C° 0 mm 2 mps 762 mmHg 66%
    23:00 +9°C° 0 mm 2 mps 763 mmHg 66%

    29 May, Tuesday

    Time Temperature Precipitation Wind Pressure Humidity
    00:00 +9°C° 0 mm 2 mps 763 mmHg 66%
    01:00 +8°C° 0 mm 2 mps 763 mmHg 67%
    02:00 +9°C° 0 mm 1 mps 763 mmHg 68%
    03:00 +9°C° 0 mm 1 mps 763 mmHg 69%
    04:00 +8°C° 0 mm 2 mps 764 mmHg 70%
    05:00 +9°C° 0 mm 2 mps 764 mmHg 71%
    06:00 +10°C° 0 mm 2 mps 764 mmHg 72%
    07:00 +12°C° 0 mm 3 mps 764 mmHg 67%
    08:00 +13°C° 0 mm 3 mps 764 mmHg 62%
    09:00 +15°C° 0 mm 4 mps 764 mmHg 57%
    10:00 +18°C° 0 mm 4 mps 763 mmHg 54%
    11:00 +19°C° 0 mm 4 mps 763 mmHg 52%
    12:00 +20°C° 0 mm 5 mps 763 mmHg 50%
    13:00 +21°C° 0 mm 5 mps 762 mmHg 50%
    14:00 +21°C° 0 mm 5 mps 762 mmHg 51%
    15:00 +22°C° 0 mm 5 mps 762 mmHg 51%
    16:00 +22°C° 0 mm 5 mps 761 mmHg 55%
    17:00 +21°C° 0 mm 4 mps 761 mmHg 60%
    18:00 +21°C° 0 mm 4 mps 760 mmHg 64%
    19:00 +19°C° 0 mm 4 mps 760 mmHg 68%
    20:00 +18°C° 0 mm 4 mps 760 mmHg 72%
    21:00 +16°C° 0 mm 3 mps 760 mmHg 76%
    22:00 +14°C° 0 mm 3 mps 760 mmHg 77%
    23:00 +14°C° 0 mm 3 mps 759 mmHg 77%
    Show more